Temperature
21 19 20 20 20 20 20 20 20 20 20 19 19 19 19 19 19 19 19 19 18 18 18 18 18 18 18 18 18 18 18 18 18 18 18 17 17 17 17 17 17 17 17
20 19 20 20 20 19 20 20 20 20 20 20 19 19 19 19 19 19 19 18 18 18 18 18 18 18 18 18 18 18 18 18 18 18 18 17 17 17 17 17 17 17 17
20 19 20 20 19 19 20 20 20 20 20 19 19 19 19 19 19 19 19 18 18 19 18 18 18 18 18 18 18 18 18 18 18 17 17 17 17 17 17 17 17 17 17
20 19 19 20 19 19 20 20 20 20 20 19 19 19 19 19 19 19 19 18 18 18 18 18 18 18 18 18 18 18 18 17 17 17 17 17 16 17 17 17 17 17 17
20 19 19 20 19 19 20 20 20 20 20 19 19 19 19 19 19 19 18 18 18 18 18 18 18 18 18 18 18 18 18 17 17 17 17 17 17 17 17 17 17 17 17
19 19 19 20 19 19 19 19 19 19 19 19 19 19 19 19 19 18 18 18 18 18 18 18 18 18 18 18 18 18 18 17 17 17 17 17 17 17 17 17 17 17 17
20 19 19 19 19 19 19 19 19 19 19 19 19 19 19 19 19 18 18 18 18 18 18 18 18 18 18 18 17 17 18 17 17 17 17 17 17 17 17 17 17 17 17
20 19 18 19 19 19 19 19 19 19 19 19 19 19 19 19 18 18 18 18 18 18 18 18 18 18 18 17 17 17 18 17 17 17 17 17 17 17 17 17 17 17 17
20 20 18 18 19 19 19 19 19 19 19 19 19 19 19 19 18 18 18 18 18 18 18 18 18 18 18 18 18 17 17 18 18 17 17 17 17 17 17 17 17 17 17
20 20 19 18 18 18 18 19 19 19 19 19 19 19 19 19 18 18 18 18 18 18 18 18 18 18 18 18 18 18 18 17 18 18 17 17 17 17 17 17 17 17 17
20 19 19 19 18 18 18 18 18 19 19 19 19 19 18 17 17 17 17 18 18 18 18 18 18 18 18 18 18 18 17 17 18 18 17 17 18 17 17 17 17 17 17
19 19 19 19 18 18 18 18 18 18 18 18 18 18 18 17 17 17 17 18 18 18 18 18 18 18 17 17 17 18 17 17 18 18 17 18 17 17 17 17 17 17 17
19 19 18 18 18 18 18 18 18 18 18 18 17 18 18 17 17 17 17 17 17 17 17 17 17 17 17 17 17 17 17 18 18 18 17 18 17 17 17 17 17 17 17
18 18 18 18 18 18 18 18 18 18 18 18 18 18 17 17 17 17 17 17 17 17 17 17 17 17 17 17 17 17 17 17 17 17 17 17 17 17 17 17 17 17 17
18 18 18 18 18 18 18 18 18 18 18 18 18 18 17 17 17 17 17 17 17 17 17 17 17 17 17 17 17 16 17 17 17 17 17 17 17 17 17 17 17 17 17
18 18 18 18 18 18 18 18 18 18 18 18 17 17 17 17 17 17 17 17 17 17 16 16 16 16 16 16 16 16 16 17 16 16 17 17 17 17 17 17 17 17 17
18 18 18 18 18 18 18 18 18 18 18 18 17 17 17 17 17 17 17 17 16 16 16 16 16 16 16 16 16 16 16 16 16 16 16 16 16 17 17 17 17 17 16
17 18 18 18 18 18 18 18 18 18 17 17 17 17 17 17 17 17 16 16 16 16 16 16 16 16 16 16 16 16 16 16 16 16 16 16 16 16 16 16 16 16 16
17 18 18 18 18 18 18 18 18 18 17 17 17 17 17 17 17 16 16 16 16 16 16 16 16 16 16 16 16 16 16 16 16 16 16 16 16 16 16 16 16 16 16
17 17 18 18 18 18 18 18 17 17 17 17 17 17 17 16 16 16 16 16 16 16 16 15 15 15 15 15 16 16 16 16 16 16 16 16 16 16 16 16 16 16 16
17 17 18 18 18 18 18 18 17 17 17 17 16 17 16 16 16 16 16 16 15 16 15 15 15 15 15 15 16 16 16 16 16 16 16 16 16 16 15 15 16 16 16
17 18 18 18 18 18 18 18 17 17 17 17 16 16 16 16 16 16 15 15 15 15 15 15 15 15 15 15 15 16 17 17 16 16 16 15 15 15 15 15 15 15 16
17 17 18 18 18 17 17 17 17 17 17 16 16 16 16 16 16 15 15 15 15 15 15 14 14 14 15 15 15 16 17 18 17 16 15 15 15 15 15 15 15 15 15
17 17 18 18 18 18 18 17 17 17 17 17 16 16 16 16 15 15 15 15 15 15 15 14 14 14 14 15 15 14 15 15 16 17 16 15 15 14 15 15 15 15 15
18 17 17 18 18 18 17 17 17 17 17 16 16 16 16 15 15 15 15 15 14 14 14 14 14 14 14 14 15 15 15 14 15 15 16 15 15 15 15 14 14 14 14
18 17 17 17 17 17 17 17 17 17 16 16 16 16 16 15 15 15 14 14 14 14 14 13 13 13 13 13 14 14 14 15 15 15 15 15 15 15 14 14 14 14 14
Wind_Speed
15 19 20 17 17 17 18 18 18 17 17 16 16 15 14 13 12 11 11 10 10 10 10 11 11 11 11 11 11 11 11 11 12 12 13 13 13 14 14 14 14 16 16
18 21 21 18 18 18 18 18 18 17 17 16 15 14 13 12 12 11 10 10 10 10 10 10 11 11 11 11 11 11 11 11 12 12 13 14 13 13 12 9 10 16 15
20 22 21 18 18 18 18 18 18 17 16 16 15 14 13 12 11 11 10 10 10 10 10 10 11 11 11 11 11 11 10 10 10 10 10 12 14 12 12 12 15 15 14
21 22 21 20 18 18 18 18 17 17 16 15 14 13 12 11 11 10 10 9 10 10 10 10 10 10 10 10 10 10 10 10 8 7 7 11 13 13 12 14 14 14 14
20 21 21 21 19 18 18 17 17 16 15 14 14 13 12 11 10 9 9 9 9 10 10 10 10 10 10 10 10 9 9 8 5 4 8 9 12 12 12 13 13 13 13
19 20 22 20 19 18 17 17 16 16 15 14 13 12 11 10 10 9 9 9 9 9 9 9 9 9 8 8 8 8 7 5 8 7 7 8 11 12 11 12 12 13 12
20 19 22 20 19 18 17 17 16 15 14 13 12 11 10 10 9 9 8 8 8 8 8 8 8 8 7 7 7 6 5 3 2 6 6 7 11 12 10 11 11 12 12
19 19 22 20 19 18 17 16 16 15 14 13 12 11 9 9 9 8 8 8 7 7 7 7 7 7 6 6 5 5 3 5 4 5 5 8 12 10 10 10 11 11 11
18 18 19 20 18 17 16 16 15 14 13 12 11 10 9 8 7 6 7 7 6 6 6 6 6 6 5 5 4 4 2 4 3 5 5 7 11 9 9 10 10 10 10
17 17 17 18 18 17 16 15 14 13 12 11 10 9 8 8 7 6 7 7 5 5 5 4 4 4 4 4 3 3 2 6 3 5 4 9 11 9 9 9 9 10 10
15 14 15 16 15 15 14 15 14 13 12 12 11 10 9 8 8 8 6 7 5 5 4 3 3 3 4 5 4 3 6 5 2 1 3 12 10 9 10 10 10 10 10
16 15 13 13 13 13 11 13 11 11 12 10 9 9 7 4 3 3 9 5 4 3 4 4 3 5 7 5 7 7 6 4 2 3 5 10 9 9 10 10 10 10 10
16 14 13 12 12 11 8 10 8 8 9 8 8 7 5 4 4 3 4 6 5 5 4 5 5 4 3 2 2 4 3 3 3 3 6 9 8 9 10 11 12 12 12
15 14 12 11 10 9 8 8 7 7 7 7 7 6 5 3 2 2 2 2 3 3 2 3 2 1 2 2 3 3 3 4 3 2 4 7 7 9 11 12 13 14 14
13 13 12 11 10 9 7 6 7 6 6 6 6 5 4 3 3 3 2 1 2 2 3 3 2 2 2 3 4 3 3 3 4 4 3 6 7 9 11 12 13 15 15
13 13 12 12 11 10 8 6 5 6 5 5 5 4 3 3 2 2 3 2 1 2 2 2 2 2 2 2 3 3 4 4 3 4 5 5 8 10 11 12 13 14 15
12 12 12 11 11 10 9 8 6 6 6 5 4 4 3 2 2 2 2 2 1 2 2 2 2 3 3 3 3 3 4 4 4 4 6 5 6 9 11 12 13 14 15
11 12 11 10 11 10 8 7 6 6 6 5 4 4 4 3 3 2 2 2 2 2 2 2 2 2 2 3 2 3 3 3 5 6 6 6 6 6 8 10 11 13 15
11 11 11 10 11 10 9 7 6 6 5 5 5 5 5 4 4 3 2 2 2 2 1 2 1 2 2 2 3 3 3 3 4 5 4 5 4 5 6 7 10 11 14
11 10 10 10 10 10 8 7 6 5 5 5 5 5 5 5 4 3 3 2 2 2 1 0 0 1 3 3 4 3 3 3 3 3 4 3 3 4 5 5 7 10 13
11 11 10 10 10 9 7 7 7 6 6 5 5 6 5 5 5 3 2 3 2 1 1 1 2 2 3 3 4 4 4 4 2 2 2 2 1 2 3 4 6 6 7
11 11 11 11 10 9 7 6 5 5 5 5 5 5 5 5 5 5 2 2 2 1 2 1 2 3 3 2 4 5 4 4 4 2 2 2 2 2 3 3 4 4 6
12 11 11 11 11 9 9 7 6 6 5 5 6 5 5 5 5 3 3 2 1 3 1 1 2 3 3 3 3 4 5 4 2 3 2 2 2 3 3 3 4 3 5
12 11 10 10 10 9 9 8 9 7 6 6 5 5 6 5 4 4 3 2 2 2 0 3 1 3 4 4 2 2 4 5 5 4 3 3 2 3 4 4 4 3 4
12 12 11 10 10 9 8 8 8 7 5 5 5 6 5 5 5 4 3 2 2 2 1 2 1 3 3 4 4 4 3 4 6 6 6 4 4 4 3 4 4 5 4
13 12 12 11 10 10 10 9 8 7 7 7 7 7 6 5 5 5 4 3 3 2 2 2 2 3 3 3 5 5 5 5 5 5 7 7 6 5 4 4 5 5 5
Wind_Direction
157 148 146 150 148 145 142 142 142 142 141 140 137 133 130 127 124 119 114 109 104 98 94 92 94 95 95 96 99 101 102 103 106 108 111 111 113 115 118 124 129 114 115
152 146 146 149 148 144 141 139 138 138 138 137 135 131 128 126 123 118 114 109 104 98 94 93 95 94 95 98 100 102 104 105 108 113 120 117 114 114 116 112 100 112 120
150 146 151 149 147 143 140 138 137 136 136 135 133 130 127 125 121 117 113 109 103 100 97 96 97 97 98 100 101 102 104 106 112 127 149 128 117 116 115 106 106 118 120
150 149 154 148 148 145 141 139 137 136 135 134 132 129 126 124 120 117 113 109 105 102 99 97 98 98 99 99 98 99 102 106 122 177 146 117 121 119 122 120 121 122 122
149 149 147 150 150 148 144 141 139 137 136 135 134 132 129 126 122 117 113 109 105 102 100 99 98 97 99 100 99 99 102 112 160 201 100 108 114 123 126 127 127 125 126
151 152 148 153 152 151 147 145 142 140 139 139 137 135 133 130 123 116 111 107 105 103 100 99 99 99 99 101 102 104 110 144 213 115 114 122 119 129 132 132 133 131 130
155 152 150 156 155 154 152 149 147 145 144 142 140 138 135 129 122 117 114 110 108 106 103 101 100 100 99 99 100 104 122 211 222 110 120 112 115 131 136 137 136 134 133
156 154 150 157 157 157 156 154 151 149 148 146 142 141 139 133 128 125 121 116 112 110 108 108 108 105 100 97 95 94 119 255 160 122 122 114 119 138 143 144 142 141 139
159 155 155 161 161 160 159 157 154 152 151 148 146 145 143 139 135 133 126 123 121 118 117 119 119 115 110 103 101 99 105 288 251 128 131 124 136 153 154 153 151 151 150
163 160 159 163 162 165 163 161 158 156 154 150 149 150 148 150 150 149 159 136 133 128 128 127 129 129 126 118 117 127 178 248 238 148 138 129 148 167 166 166 164 162 162
166 164 166 163 163 168 166 159 162 159 156 158 161 159 175 178 165 171 130 125 147 144 144 141 137 150 176 162 152 184 228 242 204 139 129 122 159 179 180 177 177 176 174
169 171 170 166 163 170 167 159 170 170 162 177 163 169 181 158 164 149 121 141 154 154 166 158 160 193 230 199 173 203 230 238 240 186 131 137 174 193 193 190 188 188 187
171 172 170 167 166 172 162 164 171 169 160 168 161 167 161 170 173 169 156 164 174 186 197 169 202 223 235 257 255 233 252 264 250 226 139 152 188 204 204 201 201 199 199
172 172 170 167 168 169 165 167 171 170 166 162 157 174 167 176 179 158 182 166 189 187 187 216 209 207 252 246 255 264 255 257 261 264 140 160 202 214 213 209 208 207 206
171 170 168 168 166 165 163 175 171 168 165 153 154 166 175 182 186 169 154 184 224 201 197 208 211 199 218 233 247 246 256 267 275 268 203 170 208 218 216 215 215 213 211
170 168 165 169 167 164 164 166 165 167 158 153 152 150 179 187 168 176 182 183 206 222 227 213 203 219 227 238 243 247 261 265 258 268 266 211 205 218 222 221 219 218 218
167 165 166 169 167 168 167 170 167 162 156 147 141 143 175 184 156 181 165 179 173 192 183 204 209 214 222 228 236 247 255 266 271 265 271 274 245 215 217 222 222 219 220
166 165 167 172 166 166 166 166 164 157 148 148 154 160 167 162 164 191 172 145 149 198 200 185 223 223 236 254 252 259 261 261 265 265 262 256 264 258 215 210 224 225 224
167 166 167 170 165 164 163 165 160 149 149 160 166 161 155 160 165 188 156 112 190 195 211 241 169 269 259 276 261 239 255 260 264 261 269 267 258 256 251 199 211 225 227
165 165 166 168 163 163 161 156 154 153 159 166 161 151 158 162 167 179 165 151 212 191 187 238 274 280 288 285 284 280 263 265 256 252 255 248 251 260 260 250 225 222 221
166 166 167 168 165 167 165 166 163 163 164 163 161 154 166 164 160 189 181 154 218 189 245 244 268 244 268 301 283 268 243 235 244 246 253 275 273 276 266 254 248 247 226
170 170 169 170 170 172 164 158 159 154 164 160 155 152 169 169 176 184 189 199 190 194 202 249 272 294 298 295 296 294 275 226 198 224 236 238 287 275 262 256 257 247 260
173 179 175 169 170 172 164 160 156 151 165 166 168 167 168 172 178 184 184 232 206 243 207 249 264 274 294 290 299 302 300 303 312 203 212 247 287 302 289 288 260 258 256
179 177 173 170 170 170 170 174 175 179 178 175 181 166 165 175 179 179 190 200 234 262 232 249 260 285 284 286 262 272 296 320 298 285 239 218 242 270 295 294 288 267 258
180 178 176 171 170 169 174 176 183 186 180 175 177 161 178 171 180 185 189 193 209 241 266 318 295 289 284 295 299 287 277 266 266 281 287 291 275 271 284 283 283 279 272
180 177 175 174 174 174 180 182 191 186 185 178 183 176 189 179 181 180 185 191 210 218 194 228 257 248 294 308 300 294 289 288 287 286 287 283 286 286 292 293 279 276 272
Height
1533 1535 1536 1540 1543 1545 1548 1550 1552 1553 1555 1556 1557 1558 1559 1560 1561 1562 1563 1563 1564 1564 1565 1565 1566 1566 1566 1566 1567 1567 1568 1568 1568 1569 1569 1570 1570 1571 1572 1573 1574 1575 1575
1532 1534 1536 1540 1543 1546 1549 1551 1553 1555 1556 1558 1559 1560 1561 1562 1563 1564 1564 1565 1565 1566 1566 1567 1567 1567 1568 1568 1568 1569 1569 1570 1570 1571 1571 1572 1573 1574 1574 1575 1577 1577 1577
1532 1534 1537 1541 1544 1547 1550 1552 1554 1556 1558 1559 1560 1561 1562 1564 1564 1565 1566 1567 1567 1567 1568 1568 1569 1569 1569 1570 1570 1571 1571 1572 1572 1573 1574 1576 1575 1575 1577 1577 1578 1579 1580
1532 1535 1538 1542 1546 1549 1551 1554 1556 1557 1559 1560 1562 1563 1564 1565 1566 1567 1567 1568 1569 1569 1569 1570 1571 1571 1571 1572 1572 1573 1573 1574 1575 1576 1578 1579 1578 1578 1579 1580 1580 1581 1582
1533 1536 1539 1543 1547 1550 1553 1555 1557 1559 1560 1562 1563 1564 1565 1566 1567 1568 1569 1570 1570 1571 1571 1572 1572 1573 1573 1574 1574 1575 1575 1576 1577 1579 1580 1580 1580 1579 1580 1582 1582 1583 1584
1534 1538 1540 1544 1548 1551 1554 1556 1558 1560 1561 1563 1564 1565 1566 1568 1569 1570 1571 1571 1572 1572 1573 1573 1574 1574 1575 1576 1576 1577 1577 1578 1579 1582 1582 1582 1582 1581 1582 1583 1584 1585 1586
1536 1540 1541 1545 1549 1552 1555 1557 1559 1561 1562 1564 1565 1567 1568 1569 1570 1571 1572 1572 1573 1574 1574 1575 1575 1576 1577 1577 1578 1578 1579 1580 1583 1584 1583 1584 1583 1583 1584 1585 1586 1587 1588
1537 1541 1543 1546 1550 1553 1556 1558 1560 1561 1563 1565 1566 1567 1569 1570 1571 1572 1573 1574 1574 1575 1576 1576 1577 1577 1578 1579 1579 1580 1580 1581 1584 1585 1585 1585 1584 1584 1585 1586 1587 1588 1589
1539 1542 1544 1547 1550 1553 1556 1559 1561 1562 1564 1565 1567 1568 1570 1571 1572 1573 1574 1575 1575 1576 1577 1577 1578 1578 1579 1580 1581 1581 1582 1583 1586 1586 1586 1586 1585 1585 1587 1587 1588 1590 1590
1539 1543 1545 1549 1551 1554 1556 1559 1561 1563 1564 1566 1568 1569 1570 1572 1573 1574 1575 1576 1576 1577 1577 1578 1579 1579 1580 1581 1581 1582 1583 1584 1587 1587 1587 1586 1586 1586 1587 1588 1589 1590 1592
1539 1542 1546 1549 1552 1555 1558 1559 1561 1563 1564 1566 1568 1569 1571 1574 1575 1575 1576 1576 1577 1577 1578 1579 1580 1580 1581 1581 1582 1583 1584 1586 1587 1588 1587 1586 1586 1587 1588 1589 1590 1591 1592
1538 1542 1545 1549 1551 1555 1558 1559 1562 1564 1565 1567 1569 1570 1572 1574 1575 1576 1576 1576 1577 1578 1579 1579 1580 1580 1582 1583 1583 1583 1585 1586 1587 1587 1587 1586 1586 1587 1588 1589 1590 1591 1592
1537 1541 1545 1548 1551 1555 1557 1560 1562 1564 1565 1567 1569 1570 1572 1573 1575 1576 1577 1577 1577 1578 1579 1580 1580 1581 1582 1583 1583 1584 1585 1586 1586 1587 1587 1586 1586 1587 1588 1589 1590 1591 1592
1536 1540 1543 1547 1550 1553 1557 1560 1562 1564 1565 1568 1568 1570 1572 1573 1574 1575 1576 1577 1577 1578 1578 1579 1580 1580 1581 1581 1582 1583 1584 1585 1586 1586 1585 1585 1585 1586 1587 1588 1589 1590 1591
1535 1539 1542 1546 1549 1552 1555 1558 1561 1563 1565 1567 1568 1569 1571 1573 1574 1575 1575 1575 1577 1577 1578 1578 1579 1579 1580 1580 1581 1582 1583 1583 1584 1584 1585 1583 1584 1585 1586 1587 1588 1589 1590
1533 1537 1541 1545 1548 1551 1554 1557 1560 1563 1564 1566 1568 1569 1570 1572 1573 1574 1574 1574 1576 1576 1577 1577 1578 1578 1579 1579 1580 1580 1581 1582 1581 1581 1583 1583 1582 1583 1584 1584 1586 1587 1588
1533 1536 1540 1544 1547 1551 1554 1557 1559 1562 1563 1565 1567 1568 1569 1571 1572 1573 1574 1574 1575 1575 1575 1576 1576 1577 1577 1578 1578 1579 1579 1579 1580 1579 1580 1580 1581 1581 1581 1582 1583 1584 1585
1532 1536 1539 1543 1547 1550 1553 1556 1559 1561 1562 1564 1566 1568 1569 1570 1571 1572 1573 1574 1573 1574 1575 1575 1576 1576 1577 1577 1577 1577 1577 1577 1577 1577 1577 1578 1578 1579 1579 1578 1580 1581 1582
1532 1535 1538 1542 1546 1549 1552 1555 1558 1559 1561 1564 1566 1567 1568 1569 1570 1572 1573 1572 1572 1574 1574 1575 1575 1575 1576 1575 1575 1575 1575 1575 1575 1575 1575 1575 1575 1575 1576 1576 1576 1577 1578
1531 1535 1538 1541 1545 1548 1551 1554 1556 1559 1561 1563 1565 1566 1567 1569 1569 1571 1572 1571 1572 1573 1573 1573 1573 1573 1574 1574 1574 1574 1573 1573 1573 1573 1573 1573 1573 1573 1573 1573 1574 1574 1575
1531 1534 1537 1541 1544 1547 1550 1553 1556 1558 1560 1562 1564 1565 1567 1568 1568 1569 1572 1570 1571 1572 1572 1573 1573 1573 1573 1573 1573 1573 1572 1571 1571 1571 1571 1571 1571 1571 1570 1570 1571 1571 1572
1530 1533 1536 1540 1543 1546 1549 1552 1555 1557 1559 1562 1563 1564 1565 1566 1567 1569 1569 1571 1571 1571 1571 1571 1571 1572 1572 1572 1572 1571 1571 1571 1569 1569 1569 1569 1569 1569 1569 1568 1568 1568 1569
1529 1532 1536 1539 1541 1545 1548 1551 1553 1556 1558 1561 1562 1563 1564 1565 1566 1567 1568 1569 1569 1570 1571 1570 1570 1570 1571 1571 1571 1571 1570 1568 1568 1568 1568 1568 1567 1567 1567 1567 1566 1565 1565
1527 1531 1534 1537 1540 1543 1546 1550 1553 1555 1558 1560 1561 1562 1563 1564 1565 1566 1566 1567 1567 1569 1568 1569 1569 1569 1569 1570 1569 1569 1569 1569 1568 1567 1567 1566 1565 1565 1565 1565 1564 1564 1563
1527 1530 1533 1536 1539 1542 1545 1548 1551 1554 1556 1558 1560 1560 1561 1562 1563 1564 1565 1565 1565 1567 1566 1566 1566 1567 1568 1568 1568 1568 1568 1567 1567 1567 1565 1565 1565 1564 1563 1562 1562 1562 1561
1525 1529 1532 1535 1538 1541 1544 1547 1549 1552 1554 1556 1557 1559 1560 1561 1562 1562 1563 1563 1564 1565 1564 1564 1565 1565 1565 1565 1565 1566 1566 1566 1566 1565 1564 1563 1562 1562 1561 1560 1559 1559 1558